Location: Newark
(54.2500°N, 9.1833°E)
Time: 16:50:51
(UTC+00:00)

A-11 Canister half - Pass Details

Date: 10 December 2019
Orbit: 1517 x 1683 km, 47.2° (Epoch: 25 January)

Event Time Altitude Azimuth Distance (km) Brightness Sun altitude
Rises 16:14:22 0° 277° (W) 4,849 12.7 -10.0°
Reaches altitude 10° 16:17:36 10° 272° (W) 3,882 12.2 -10.4°
Maximum altitude 16:26:55 47° 203° (SSW) 2,114 10.1 -11.6°
Drops below altitude 10° 16:36:23 10° 134° (SE) 3,942 10.9 -12.9°
Sets 16:39:42 0° 129° (SE) 4,929 11.4 -13.4°
